Time,TemperatureF,DewpointF,PressureIn,WindDirection,WindDirectionDegrees,WindSpeedMPH,WindSpeedGustMPH,Humidity,HourlyPrecipIn,Conditions,Clouds,dailyrainin,SoftwareType,DateUTC
2013-12-22 00:00:00,36.2,35.7,29.71,West,262,0.0,0.0,98,0.00,,,0.70,Wunderground v.1.15,2013-12-22 06:00:00,
2013-12-22 00:05:00,36.2,35.7,29.71,West,262,0.0,0.0,98,0.00,,,0.70,Wunderground v.1.15,2013-12-22 06:05:00,
2013-12-22 00:10:00,36.2,35.7,29.70,West,262,0.0,0.0,98,0.00,,,0.70,Wunderground v.1.15,2013-12-22 06:10:00,
2013-12-22 00:15:00,36.2,35.7,29.71,West,262,0.0,0.0,98,0.00,,,0.00,Wunderground v.1.15,2013-12-22 06:15:00,
2013-12-22 00:20:00,36.2,35.7,29.72,WSW,256,0.0,0.0,98,0.00,,,0.00,Wunderground v.1.15,2013-12-22 06:20:00,
2013-12-22 00:25:00,36.2,35.7,29.72,WSW,255,0.0,0.0,98,0.00,,,0.00,Wunderground v.1.15,2013-12-22 06:25:00,
2013-12-22 00:30:00,36.2,35.7,29.72,WSW,254,0.0,0.0,98,0.00,,,0.00,Wunderground v.1.15,2013-12-22 06:30:00,
2013-12-22 00:35:00,36.3,35.8,29.72,WSW,252,0.0,0.0,98,0.00,,,0.00,Wunderground v.1.15,2013-12-22 06:35:00,
2013-12-22 00:40:00,36.4,35.9,29.72,SW,224,0.0,0.0,98,0.00,,,0.00,Wunderground v.1.15,2013-12-22 06:40:00,
2013-12-22 00:45:00,36.4,35.9,29.73,SW,221,0.0,0.0,98,0.00,,,0.00,Wunderground v.1.15,2013-12-22 06:45:00,
2013-12-22 00:55:00,36.6,36.1,29.74,SW,219,0.0,0.0,98,0.00,,,0.00,Wunderground v.1.15,2013-12-22 06:55:00,
2013-12-22 01:05:00,36.8,36.3,29.73,SW,218,0.0,0.0,98,0.00,,,0.00,Wunderground v.1.15,2013-12-22 07:05:00,
2013-12-22 01:10:00,37.0,36.5,29.74,SW,218,0.0,0.0,98,0.00,,,0.00,Wunderground v.1.15,2013-12-22 07:10:00,
2013-12-22 01:15:00,37.1,36.6,29.74,SW,227,0.0,0.0,98,0.00,,,0.00,Wunderground v.1.15,2013-12-22 07:15:00,
2013-12-22 01:20:00,37.2,36.7,29.73,SW,227,0.0,0.0,98,0.00,,,0.00,Wunderground v.1.15,2013-12-22 07:20:00,
2013-12-22 01:25:00,37.2,36.7,29.72,SSW,212,0.0,0.0,98,0.00,,,0.00,Wunderground v.1.15,2013-12-22 07:25:00,
2013-12-22 01:30:00,37.3,36.8,29.72,SSW,212,0.0,0.0,98,0.00,,,0.00,Wunderground v.1.15,2013-12-22 07:30:00,
2013-12-22 01:40:00,37.4,36.9,29.72,SSW,213,0.0,0.0,98,0.00,,,0.00,Wunderground v.1.15,2013-12-22 07:40:00,
2013-12-22 01:45:00,37.5,37.0,29.72,SSW,210,0.0,0.0,98,0.00,,,0.00,Wunderground v.1.15,2013-12-22 07:45:00,
2013-12-22 01:50:00,37.5,37.0,29.72,SSW,209,0.0,0.0,98,0.00,,,0.00,Wunderground v.1.15,2013-12-22 07:50:00,
2013-12-22 01:55:00,37.6,37.1,29.72,SSW,208,0.0,0.0,98,0.00,,,0.00,Wunderground v.1.15,2013-12-22 07:55:00,
2013-12-22 02:00:00,37.7,37.2,29.72,SSW,207,0.0,0.0,98,0.00,,,0.00,Wunderground v.1.15,2013-12-22 08:00:00,
2013-12-22 02:05:00,37.7,37.2,29.72,SSW,207,0.0,0.0,98,0.00,,,0.00,Wunderground v.1.15,2013-12-22 08:05:00,
2013-12-22 02:10:00,37.7,37.2,29.72,SSW,207,0.0,0.0,98,0.00,,,0.00,Wunderground v.1.15,2013-12-22 08:10:00,
2013-12-22 02:15:00,37.7,37.2,29.72,SSW,206,0.0,0.0,98,0.00,,,0.00,Wunderground v.1.15,2013-12-22 08:15:00,
2013-12-22 02:20:00,37.7,37.2,29.72,SSW,206,0.0,0.0,98,0.00,,,0.00,Wunderground v.1.15,2013-12-22 08:20:00,
2013-12-22 02:25:00,37.8,37.3,29.72,SSW,206,0.0,0.0,98,0.00,,,0.00,Wunderground v.1.15,2013-12-22 08:25:00,
2013-12-22 02:30:00,37.8,37.3,29.72,SSW,206,0.0,0.0,98,0.00,,,0.00,Wunderground v.1.15,2013-12-22 08:30:00,
2013-12-22 02:35:00,37.9,37.4,29.74,South,175,0.0,0.0,98,0.00,,,0.00,Wunderground v.1.15,2013-12-22 08:35:00,
2013-12-22 02:40:00,38.0,37.5,29.74,South,174,0.0,0.0,98,0.00,,,0.00,Wunderground v.1.15,2013-12-22 08:40:00,
2013-12-22 02:45:00,38.0,37.5,29.74,South,174,0.0,0.0,98,0.00,,,0.00,Wunderground v.1.15,2013-12-22 08:45:00,
2013-12-22 02:50:00,38.1,37.6,29.74,South,177,0.0,0.0,98,0.00,,,0.00,Wunderground v.1.15,2013-12-22 08:50:00,
2013-12-22 02:55:00,38.2,37.7,29.75,SSE,168,0.0,0.0,98,0.00,,,0.00,Wunderground v.1.15,2013-12-22 08:55:00,
2013-12-22 03:00:00,38.2,37.7,29.75,SSE,155,0.0,0.0,98,0.00,,,0.00,Wunderground v.1.15,2013-12-22 09:00:00,
2013-12-22 03:05:00,38.3,37.8,29.75,SSE,150,0.0,0.0,98,0.00,,,0.00,Wunderground v.1.15,2013-12-22 09:05:00,
2013-12-22 03:10:00,38.4,37.9,29.75,SSE,164,0.0,0.0,98,0.00,,,0.00,Wunderground v.1.15,2013-12-22 09:10:00,
2013-12-22 03:15:00,38.4,37.9,29.76,SSE,164,0.0,0.0,98,0.00,,,0.00,Wunderground v.1.15,2013-12-22 09:15:00,
2013-12-22 03:20:00,38.5,38.0,29.76,SSE,165,0.0,0.0,98,0.00,,,0.00,Wunderground v.1.15,2013-12-22 09:20:00,
2013-12-22 03:25:00,38.6,38.1,29.76,SSE,160,0.0,0.0,98,0.00,,,0.00,Wunderground v.1.15,2013-12-22 09:25:00,
2013-12-22 03:30:00,38.6,38.1,29.75,SSE,154,0.0,0.0,98,0.00,,,0.00,Wunderground v.1.15,2013-12-22 09:30:00,
2013-12-22 03:35:00,38.7,38.2,29.76,SSE,148,0.0,0.0,98,0.00,,,0.00,Wunderground v.1.15,2013-12-22 09:35:00,
2013-12-22 03:40:00,38.7,38.2,29.75,SSE,150,0.0,0.0,98,0.00,,,0.00,Wunderground v.1.15,2013-12-22 09:40:00,
2013-12-22 03:45:00,38.8,38.3,29.75,SSE,150,0.0,0.0,98,0.00,,,0.00,Wunderground v.1.15,2013-12-22 09:45:00,
2013-12-22 03:50:00,38.9,38.4,29.76,SSE,150,0.0,0.0,98,0.00,,,0.00,Wunderground v.1.15,2013-12-22 09:50:00,
2013-12-22 03:55:00,39.1,38.6,29.77,SSE,148,0.0,0.0,98,0.00,,,0.00,Wunderground v.1.15,2013-12-22 09:55:00,
2013-12-22 04:00:00,39.1,38.6,29.76,SSE,152,0.0,0.0,98,0.00,,,0.00,Wunderground v.1.15,2013-12-22 10:00:00,
2013-12-22 04:05:00,39.2,38.7,29.75,SSE,152,0.0,0.0,98,0.00,,,0.00,Wunderground v.1.15,2013-12-22 10:05:00,
2013-12-22 04:10:00,39.3,38.8,29.76,SE,146,0.0,0.0,98,0.00,,,0.00,Wunderground v.1.15,2013-12-22 10:10:00,
2013-12-22 04:15:00,39.4,38.9,29.76,SSE,161,0.0,0.0,98,0.00,,,0.00,Wunderground v.1.15,2013-12-22 10:15:00,
2013-12-22 04:20:00,39.5,39.0,29.76,SSE,150,0.0,0.0,98,0.00,,,0.00,Wunderground v.1.15,2013-12-22 10:20:00,
2013-12-22 04:25:00,39.6,39.1,29.77,SSE,148,0.0,0.0,98,0.00,,,0.00,Wunderground v.1.15,2013-12-22 10:25:00,
2013-12-22 04:30:00,39.7,39.2,29.77,SSE,152,0.0,0.0,98,0.00,,,0.00,Wunderground v.1.15,2013-12-22 10:30:00,
2013-12-22 04:35:00,39.8,39.3,29.77,SSE,159,0.0,0.0,98,0.00,,,0.00,Wunderground v.1.15,2013-12-22 10:35:00,
2013-12-22 04:40:00,39.8,39.3,29.77,SSE,159,0.0,0.0,98,0.00,,,0.00,Wunderground v.1.15,2013-12-22 10:40:00,
2013-12-22 04:45:00,39.9,39.4,29.77,SSE,159,0.0,0.0,98,0.00,,,0.00,Wunderground v.1.15,2013-12-22 10:45:00,
2013-12-22 04:50:00,40.0,39.5,29.77,SSE,159,0.0,0.0,98,0.00,,,0.00,Wunderground v.1.15,2013-12-22 10:50:00,
2013-12-22 04:55:00,40.0,39.5,29.77,SSE,159,0.0,0.0,98,0.00,,,0.00,Wunderground v.1.15,2013-12-22 10:55:00,
2013-12-22 05:00:00,40.1,39.6,29.78,SSE,160,0.0,0.0,98,0.00,,,0.00,Wunderground v.1.15,2013-12-22 11:00:00,
2013-12-22 05:05:00,40.2,39.7,29.78,SSE,160,0.0,0.0,98,0.00,,,0.01,Wunderground v.1.15,2013-12-22 11:05:00,
2013-12-22 05:10:00,40.3,39.8,29.78,SSE,160,0.0,0.0,98,0.00,,,0.01,Wunderground v.1.15,2013-12-22 11:10:00,
2013-12-22 05:15:00,40.5,40.0,29.79,SSE,162,0.0,0.0,98,0.00,,,0.01,Wunderground v.1.15,2013-12-22 11:15:00,
2013-12-22 05:20:00,40.6,40.3,29.79,SSE,162,0.0,0.0,99,0.00,,,0.01,Wunderground v.1.15,2013-12-22 11:20:00,
2013-12-22 05:25:00,40.7,40.4,29.79,SSE,162,0.0,0.0,99,0.00,,,0.01,Wunderground v.1.15,2013-12-22 11:25:00,
2013-12-22 05:30:00,40.8,40.5,29.79,SSE,162,0.0,0.0,99,0.00,,,0.01,Wunderground v.1.15,2013-12-22 11:30:00,
2013-12-22 05:35:00,40.9,40.4,29.79,SSE,162,0.0,0.0,98,0.00,,,0.01,Wunderground v.1.15,2013-12-22 11:35:00,
2013-12-22 05:40:00,41.0,40.5,29.80,SSE,162,0.0,0.0,98,0.00,,,0.01,Wunderground v.1.15,2013-12-22 11:40:00,
2013-12-22 05:45:00,41.1,40.8,29.80,SSE,162,0.0,0.0,99,0.00,,,0.01,Wunderground v.1.15,2013-12-22 11:45:00,
2013-12-22 05:50:00,41.2,40.9,29.80,SSE,162,0.0,0.0,99,0.00,,,0.01,Wunderground v.1.15,2013-12-22 11:50:00,
2013-12-22 05:55:00,41.3,41.0,29.81,SSE,162,0.0,0.0,99,0.00,,,0.01,Wunderground v.1.15,2013-12-22 11:55:00,
2013-12-22 06:00:00,41.5,41.0,29.81,SSE,164,0.0,0.0,98,0.00,,,0.01,Wunderground v.1.15,2013-12-22 12:00:00,
2013-12-22 06:05:00,41.6,41.1,29.81,SSE,164,0.0,0.0,98,0.00,,,0.01,Wunderground v.1.15,2013-12-22 12:05:00,
2013-12-22 06:10:00,41.7,41.4,29.82,SSE,164,0.0,0.0,99,0.00,,,0.01,Wunderground v.1.15,2013-12-22 12:10:00,
2013-12-22 06:15:00,41.8,41.5,29.82,SSE,164,0.0,0.0,99,0.00,,,0.01,Wunderground v.1.15,2013-12-22 12:15:00,
2013-12-22 06:20:00,41.9,41.6,29.82,South,172,0.0,0.0,99,0.00,,,0.01,Wunderground v.1.15,2013-12-22 12:20:00,
2013-12-22 06:25:00,42.0,41.7,29.82,South,173,0.0,0.0,99,0.00,,,0.01,Wunderground v.1.15,2013-12-22 12:25:00,
2013-12-22 06:30:00,42.0,41.5,29.82,South,173,0.0,0.0,98,0.00,,,0.01,Wunderground v.1.15,2013-12-22 12:30:00,
2013-12-22 06:35:00,42.1,41.6,29.83,South,173,0.0,0.0,98,0.00,,,0.01,Wunderground v.1.15,2013-12-22 12:35:00,
2013-12-22 06:40:00,42.1,41.6,29.83,South,173,0.0,0.0,98,0.00,,,0.01,Wunderground v.1.15,2013-12-22 12:40:00,
2013-12-22 06:45:00,42.1,41.6,29.83,South,173,0.0,0.0,98,0.00,,,0.01,Wunderground v.1.15,2013-12-22 12:45:00,
2013-12-22 06:50:00,42.2,41.7,29.83,South,173,0.0,0.0,98,0.00,,,0.01,Wunderground v.1.15,2013-12-22 12:50:00,
2013-12-22 06:55:00,42.2,41.7,29.84,South,173,0.0,0.0,98,0.00,,,0.01,Wunderground v.1.15,2013-12-22 12:55:00,
2013-12-22 07:00:00,42.2,41.7,29.84,South,184,0.0,0.0,98,0.00,,,0.01,Wunderground v.1.15,2013-12-22 13:00:00,
2013-12-22 07:05:00,42.3,42.0,29.85,SW,233,0.0,0.0,99,0.00,,,0.01,Wunderground v.1.15,2013-12-22 13:05:00,
2013-12-22 07:10:00,42.3,42.0,29.85,SW,233,0.0,0.0,99,0.00,,,0.01,Wunderground v.1.15,2013-12-22 13:10:00,
2013-12-22 07:15:00,42.3,42.0,29.85,WSW,241,0.0,0.0,99,0.00,,,0.01,Wunderground v.1.15,2013-12-22 13:15:00,
2013-12-22 07:20:00,42.2,41.9,29.86,WSW,243,0.0,0.0,99,0.00,,,0.01,Wunderground v.1.15,2013-12-22 13:20:00,
2013-12-22 07:25:00,42.1,41.6,29.86,West,267,0.0,0.0,98,0.00,,,0.01,Wunderground v.1.15,2013-12-22 13:25:00,
2013-12-22 07:30:00,42.0,41.5,29.86,SW,236,0.0,0.0,98,0.00,,,0.01,Wunderground v.1.15,2013-12-22 13:30:00,
2013-12-22 07:35:00,41.7,41.2,29.86,SSW,204,0.0,0.0,98,0.00,,,0.01,Wunderground v.1.15,2013-12-22 13:35:00,
2013-12-22 07:40:00,41.6,41.1,29.86,SSW,212,0.0,0.0,98,0.00,,,0.01,Wunderground v.1.15,2013-12-22 13:40:00,
2013-12-22 07:45:00,41.6,41.1,29.86,SW,220,0.0,0.0,98,0.00,,,0.01,Wunderground v.1.15,2013-12-22 13:45:00,
2013-12-22 07:50:00,41.6,41.1,29.85,SW,225,0.0,0.0,98,0.00,,,0.01,Wunderground v.1.15,2013-12-22 13:50:00,
2013-12-22 07:55:00,41.7,41.2,29.85,SW,225,0.0,0.0,98,0.00,,,0.01,Wunderground v.1.15,2013-12-22 13:55:00,
2013-12-22 08:00:00,41.7,41.2,29.86,SW,225,0.0,0.0,98,0.00,,,0.01,Wunderground v.1.15,2013-12-22 14:00:00,
2013-12-22 08:05:00,41.7,41.4,29.88,SW,225,0.0,0.0,99,0.00,,,0.01,Wunderground v.1.15,2013-12-22 14:05:00,
2013-12-22 08:10:00,41.8,41.3,29.88,SW,224,0.0,0.0,98,0.00,,,0.01,Wunderground v.1.15,2013-12-22 14:10:00,
2013-12-22 08:15:00,41.9,41.4,29.87,SW,224,0.0,0.0,98,0.00,,,0.01,Wunderground v.1.15,2013-12-22 14:15:00,
2013-12-22 08:20:00,41.8,41.3,29.88,SW,229,0.0,0.0,98,0.00,,,0.01,Wunderground v.1.15,2013-12-22 14:20:00,
2013-12-22 08:25:00,41.9,41.4,29.88,SW,233,0.0,0.0,98,0.00,,,0.01,Wunderground v.1.15,2013-12-22 14:25:00,
2013-12-22 08:30:00,41.8,41.3,29.87,WSW,239,0.0,0.0,98,0.00,,,0.01,Wunderground v.1.15,2013-12-22 14:30:00,
2013-12-22 08:35:00,41.7,41.2,29.86,WSW,239,0.0,0.0,98,0.00,,,0.01,Wunderground v.1.15,2013-12-22 14:35:00,
2013-12-22 08:40:00,41.8,41.3,29.87,WSW,239,0.0,0.0,98,0.00,,,0.01,Wunderground v.1.15,2013-12-22 14:40:00,
2013-12-22 08:45:00,42.0,41.5,29.88,WSW,239,0.0,0.0,98,0.00,,,0.01,Wunderground v.1.15,2013-12-22 14:45:00,
2013-12-22 08:50:00,42.1,41.6,29.88,WSW,239,0.0,0.0,98,0.00,,,0.01,Wunderground v.1.15,2013-12-22 14:50:00,
2013-12-22 08:55:00,42.1,41.6,29.89,WSW,239,0.0,0.0,98,0.00,,,0.01,Wunderground v.1.15,2013-12-22 14:55:00,
2013-12-22 09:00:00,42.1,41.6,29.90,SSW,212,0.0,0.0,98,0.00,,,0.01,Wunderground v.1.15,2013-12-22 15:00:00,
2013-12-22 09:10:00,42.2,41.7,29.90,SSW,212,0.0,0.0,98,0.00,,,0.01,Wunderground v.1.15,2013-12-22 15:10:00,
2013-12-22 09:15:00,42.3,42.0,29.90,SW,223,0.0,0.0,99,0.00,,,0.01,Wunderground v.1.15,2013-12-22 15:15:00,
2013-12-22 09:20:00,42.4,42.1,29.90,WSW,250,0.0,0.0,99,0.00,,,0.01,Wunderground v.1.15,2013-12-22 15:20:00,
2013-12-22 09:25:00,42.5,42.0,29.90,West,259,0.0,0.0,98,0.00,,,0.01,Wunderground v.1.15,2013-12-22 15:25:00,
2013-12-22 09:30:00,42.5,42.0,29.91,WSW,258,0.0,0.0,98,0.00,,,0.01,Wunderground v.1.15,2013-12-22 15:30:00,
2013-12-22 09:35:00,42.5,42.0,29.92,WSW,252,0.0,0.0,98,0.00,,,0.01,Wunderground v.1.15,2013-12-22 15:35:00,
2013-12-22 09:40:00,42.6,42.1,29.92,WSW,252,0.0,0.0,98,0.00,,,0.01,Wunderground v.1.15,2013-12-22 15:40:00,
2013-12-22 09:45:00,42.7,42.2,29.92,WSW,253,0.0,0.0,98,0.00,,,0.01,Wunderground v.1.15,2013-12-22 15:45:00,
2013-12-22 09:50:00,43.1,42.6,29.92,WNW,290,0.0,0.0,98,0.00,,,0.01,Wunderground v.1.15,2013-12-22 15:50:00,
2013-12-22 09:55:00,43.4,43.1,29.92,West,272,0.0,0.0,99,0.00,,,0.01,Wunderground v.1.15,2013-12-22 15:55:00,
2013-12-22 10:00:00,43.7,43.2,29.92,West,278,0.0,0.0,98,0.00,,,0.01,Wunderground v.1.15,2013-12-22 16:00:00,
2013-12-22 10:05:00,43.7,43.2,29.93,West,279,0.0,0.0,98,0.00,,,0.01,Wunderground v.1.15,2013-12-22 16:05:00,
2013-12-22 10:10:00,43.4,42.9,29.92,WNW,282,0.0,0.0,98,0.00,,,0.01,Wunderground v.1.15,2013-12-22 16:10:00,
2013-12-22 10:15:00,43.2,42.7,29.93,WNW,283,0.0,0.0,98,0.00,,,0.01,Wunderground v.1.15,2013-12-22 16:15:00,
2013-12-22 10:20:00,43.0,42.5,29.93,West,260,0.0,0.0,98,0.00,,,0.01,Wunderground v.1.15,2013-12-22 16:20:00,
2013-12-22 10:25:00,42.7,41.9,29.94,West,279,0.0,0.0,97,0.00,,,0.01,Wunderground v.1.15,2013-12-22 16:25:00,
2013-12-22 10:30:00,42.4,41.6,29.94,WNW,284,0.0,0.0,97,0.00,,,0.01,Wunderground v.1.15,2013-12-22 16:30:00,
2013-12-22 10:35:00,42.3,41.5,29.94,WNW,285,0.0,0.0,97,0.00,,,0.01,Wunderground v.1.15,2013-12-22 16:35:00,
2013-12-22 10:40:00,42.2,41.1,29.95,WSW,247,0.0,0.0,96,0.00,,,0.01,Wunderground v.1.15,2013-12-22 16:40:00,
2013-12-22 10:45:00,42.0,40.9,29.95,West,265,0.0,0.0,96,0.00,,,0.01,Wunderground v.1.15,2013-12-22 16:45:00,
2013-12-22 10:50:00,41.8,40.7,29.95,NW,308,0.0,0.0,96,0.00,,,0.01,Wunderground v.1.15,2013-12-22 16:50:00,
2013-12-22 10:55:00,41.5,40.2,29.95,WNW,286,0.0,0.0,95,0.00,,,0.01,Wunderground v.1.15,2013-12-22 16:55:00,
2013-12-22 11:00:00,41.2,39.9,29.95,WSW,248,0.0,0.0,95,0.00,,,0.01,Wunderground v.1.15,2013-12-22 17:00:00,
2013-12-22 11:05:00,40.8,39.2,29.96,West,274,0.0,0.0,94,0.00,,,0.01,Wunderground v.1.15,2013-12-22 17:05:00,
2013-12-22 11:10:00,40.6,39.3,29.96,WNW,285,0.0,0.0,95,0.00,,,0.01,Wunderground v.1.15,2013-12-22 17:10:00,
2013-12-22 11:15:00,40.6,39.3,29.96,West,269,0.0,0.0,95,0.00,,,0.01,Wunderground v.1.15,2013-12-22 17:15:00,
2013-12-22 11:20:00,40.6,39.3,29.96,West,275,0.0,0.0,95,0.00,,,0.01,Wunderground v.1.15,2013-12-22 17:20:00,
2013-12-22 11:25:00,40.7,39.4,29.95,West,275,0.0,0.0,95,0.00,,,0.01,Wunderground v.1.15,2013-12-22 17:25:00,
2013-12-22 11:30:00,40.7,39.4,29.97,West,270,0.0,0.0,95,0.00,,,0.01,Wunderground v.1.15,2013-12-22 17:30:00,
2013-12-22 11:35:00,40.7,39.1,29.95,NW,307,0.0,0.0,94,0.00,,,0.01,Wunderground v.1.15,2013-12-22 17:35:00,
2013-12-22 11:45:00,40.7,38.6,29.96,WNW,284,0.0,0.0,92,0.00,,,0.01,Wunderground v.1.15,2013-12-22 17:45:00,
2013-12-22 11:50:00,40.8,38.4,29.95,WSW,252,0.0,0.0,91,0.00,,,0.01,Wunderground v.1.15,2013-12-22 17:50:00,
2013-12-22 11:55:00,40.8,38.1,29.95,West,268,0.0,0.0,90,0.00,,,0.01,Wunderground v.1.15,2013-12-22 17:55:00,
2013-12-22 12:00:00,41.0,38.3,29.95,West,262,0.0,0.0,90,0.00,,,0.01,Wunderground v.1.15,2013-12-22 18:00:00,
2013-12-22 12:05:00,41.0,37.7,29.95,West,275,0.0,0.0,88,0.00,,,0.01,Wunderground v.1.15,2013-12-22 18:05:00,
2013-12-22 12:10:00,41.1,38.1,29.96,West,260,0.0,0.0,89,0.00,,,0.01,Wunderground v.1.15,2013-12-22 18:10:00,
2013-12-22 12:15:00,41.1,37.5,29.96,WSW,258,0.0,0.0,87,0.00,,,0.01,Wunderground v.1.15,2013-12-22 18:15:00,
2013-12-22 12:20:00,41.2,37.6,29.96,WSW,250,0.0,0.0,87,0.00,,,0.01,Wunderground v.1.15,2013-12-22 18:20:00,
2013-12-22 12:25:00,41.3,37.7,29.97,West,266,0.0,0.0,87,0.00,,,0.01,Wunderground v.1.15,2013-12-22 18:25:00,
2013-12-22 12:30:00,41.4,37.2,29.96,West,262,0.0,0.0,85,0.00,,,0.01,Wunderground v.1.15,2013-12-22 18:30:00,
2013-12-22 12:35:00,41.4,37.2,29.97,WSW,243,0.0,0.0,85,0.00,,,0.01,Wunderground v.1.15,2013-12-22 18:35:00,
2013-12-22 12:40:00,41.4,37.2,29.97,West,264,0.0,0.0,85,0.00,,,0.01,Wunderground v.1.15,2013-12-22 18:40:00,
2013-12-22 12:45:00,41.4,36.9,29.97,WSW,249,0.0,0.0,84,0.00,,,0.01,Wunderground v.1.15,2013-12-22 18:45:00,
2013-12-22 12:50:00,41.4,36.9,29.97,WSW,254,0.0,0.0,84,0.00,,,0.01,Wunderground v.1.15,2013-12-22 18:50:00,
2013-12-22 12:55:00,41.4,36.9,29.97,West,268,0.0,0.0,84,0.00,,,0.01,Wunderground v.1.15,2013-12-22 18:55:00,
2013-12-22 13:00:00,41.5,37.0,29.98,WSW,247,0.0,0.0,84,0.00,,,0.01,Wunderground v.1.15,2013-12-22 19:00:00,
2013-12-22 13:05:00,41.6,36.8,29.98,WSW,240,0.0,0.0,83,0.00,,,0.01,Wunderground v.1.15,2013-12-22 19:05:00,
2013-12-22 13:10:00,41.7,36.9,29.98,West,271,0.0,0.0,83,0.00,,,0.01,Wunderground v.1.15,2013-12-22 19:10:00,
2013-12-22 13:15:00,41.9,37.1,29.98,West,279,0.0,0.0,83,0.00,,,0.01,Wunderground v.1.15,2013-12-22 19:15:00,
2013-12-22 13:20:00,42.0,37.2,29.98,West,270,0.0,0.0,83,0.00,,,0.01,Wunderground v.1.15,2013-12-22 19:20:00,
2013-12-22 13:25:00,42.0,36.9,29.97,WNW,289,0.0,0.0,82,0.00,,,0.01,Wunderground v.1.15,2013-12-22 19:25:00,
2013-12-22 13:30:00,42.0,36.9,29.97,WNW,289,0.0,0.0,82,0.00,,,0.01,Wunderground v.1.15,2013-12-22 19:30:00,
2013-12-22 13:35:00,42.0,36.9,29.98,West,266,0.0,0.0,82,0.00,,,0.01,Wunderground v.1.15,2013-12-22 19:35:00,
2013-12-22 13:40:00,42.0,36.6,29.97,WNW,283,0.0,0.0,81,0.00,,,0.01,Wunderground v.1.15,2013-12-22 19:40:00,
2013-12-22 13:45:00,42.0,36.3,29.97,NW,304,0.0,0.0,80,0.00,,,0.01,Wunderground v.1.15,2013-12-22 19:45:00,
2013-12-22 13:50:00,41.8,36.1,29.98,West,270,0.0,0.0,80,0.00,,,0.01,Wunderground v.1.15,2013-12-22 19:50:00,
2013-12-22 13:55:00,41.6,35.2,29.99,West,266,0.0,0.0,78,0.00,,,0.01,Wunderground v.1.15,2013-12-22 19:55:00,
2013-12-22 14:00:00,41.4,35.7,29.99,WSW,258,0.0,0.0,80,0.00,,,0.01,Wunderground v.1.15,2013-12-22 20:00:00,
2013-12-22 14:05:00,41.3,35.6,29.99,WSW,247,0.0,0.0,80,0.00,,,0.01,Wunderground v.1.15,2013-12-22 20:05:00,
2013-12-22 14:10:00,41.4,35.7,29.99,WSW,256,0.0,0.0,80,0.00,,,0.01,Wunderground v.1.15,2013-12-22 20:10:00,
2013-12-22 14:15:00,41.3,35.6,29.99,West,265,0.0,0.0,80,0.00,,,0.01,Wunderground v.1.15,2013-12-22 20:15:00,
2013-12-22 14:25:00,41.3,35.3,29.99,WSW,247,0.0,0.0,79,0.00,,,0.01,Wunderground v.1.15,2013-12-22 20:25:00,
2013-12-22 14:30:00,41.3,35.6,29.99,West,266,0.0,0.0,80,0.00,,,0.01,Wunderground v.1.15,2013-12-22 20:30:00,
2013-12-22 14:35:00,41.4,36.3,29.98,West,275,0.0,0.0,82,0.00,,,0.01,Wunderground v.1.15,2013-12-22 20:35:00,
2013-12-22 14:40:00,41.5,36.1,29.98,WNW,287,0.0,0.0,81,0.00,,,0.01,Wunderground v.1.15,2013-12-22 20:40:00,
2013-12-22 14:45:00,41.6,36.2,29.99,West,275,0.0,0.0,81,0.00,,,0.01,Wunderground v.1.15,2013-12-22 20:45:00,
2013-12-22 14:50:00,41.8,35.8,29.99,WNW,285,0.0,0.0,79,0.00,,,0.01,Wunderground v.1.15,2013-12-22 20:50:00,
2013-12-22 14:55:00,42.2,36.2,29.99,West,271,0.0,0.0,79,0.00,,,0.01,Wunderground v.1.15,2013-12-22 20:55:00,
2013-12-22 15:00:00,43.1,37.0,29.99,WNW,295,0.0,0.0,79,0.00,,,0.01,Wunderground v.1.15,2013-12-22 21:00:00,
2013-12-22 15:05:00,43.5,35.8,29.99,West,281,0.0,0.0,74,0.00,,,0.01,Wunderground v.1.15,2013-12-22 21:05:00,
2013-12-22 15:10:00,43.4,35.7,29.99,West,280,0.0,0.0,74,0.00,,,0.01,Wunderground v.1.15,2013-12-22 21:10:00,
2013-12-22 15:15:00,43.0,35.3,30.00,WSW,256,0.0,0.0,74,0.00,,,0.01,Wunderground v.1.15,2013-12-22 21:15:00,
2013-12-22 15:20:00,42.7,35.7,30.00,West,275,0.0,0.0,76,0.00,,,0.01,Wunderground v.1.15,2013-12-22 21:20:00,
2013-12-22 15:25:00,42.3,35.3,30.01,WNW,300,0.0,0.0,76,0.00,,,0.01,Wunderground v.1.15,2013-12-22 21:25:00,
2013-12-22 15:30:00,42.0,35.0,30.01,West,270,0.0,0.0,76,0.00,,,0.01,Wunderground v.1.15,2013-12-22 21:30:00,
2013-12-22 15:35:00,41.6,34.9,30.01,WNW,297,0.0,0.0,77,0.00,,,0.01,Wunderground v.1.15,2013-12-22 21:35:00,
2013-12-22 15:40:00,41.4,34.7,30.02,WNW,287,0.0,0.0,77,0.00,,,0.01,Wunderground v.1.15,2013-12-22 21:40:00,
2013-12-22 15:45:00,41.3,34.6,30.02,WNW,291,0.0,0.0,77,0.00,,,0.01,Wunderground v.1.15,2013-12-22 21:45:00,
2013-12-22 15:55:00,40.9,34.9,30.03,WNW,284,0.0,0.0,79,0.00,,,0.01,Wunderground v.1.15,2013-12-22 21:55:00,
2013-12-22 16:00:00,40.6,34.6,30.03,WNW,283,0.0,0.0,79,0.00,,,0.01,Wunderground v.1.15,2013-12-22 22:00:00,
2013-12-22 16:05:00,40.2,33.9,30.03,WNW,302,0.0,0.0,78,0.00,,,0.01,Wunderground v.1.15,2013-12-22 22:05:00,
2013-12-22 16:10:00,39.7,33.7,30.04,WNW,301,0.0,0.0,79,0.00,,,0.01,Wunderground v.1.15,2013-12-22 22:10:00,
2013-12-22 16:15:00,39.4,33.7,30.04,WNW,299,0.0,0.0,80,0.00,,,0.01,Wunderground v.1.15,2013-12-22 22:15:00,
2013-12-22 16:20:00,39.0,33.4,30.05,NW,321,0.0,0.0,80,0.00,,,0.01,Wunderground v.1.15,2013-12-22 22:20:00,
2013-12-22 16:25:00,38.7,33.4,30.04,NNW,331,0.0,0.0,81,0.00,,,0.01,Wunderground v.1.15,2013-12-22 22:25:00,
2013-12-22 16:30:00,38.4,33.1,30.04,WNW,294,0.0,0.0,81,0.00,,,0.01,Wunderground v.1.15,2013-12-22 22:30:00,
2013-12-22 16:35:00,38.2,33.2,30.05,WNW,288,0.0,0.0,82,0.00,,,0.01,Wunderground v.1.15,2013-12-22 22:35:00,
2013-12-22 16:40:00,38.0,33.3,30.05,NW,321,0.0,0.0,83,0.00,,,0.01,Wunderground v.1.15,2013-12-22 22:40:00,
2013-12-22 16:45:00,38.0,33.3,30.06,WNW,297,0.0,0.0,83,0.00,,,0.01,Wunderground v.1.15,2013-12-22 22:45:00,
2013-12-22 16:50:00,37.8,32.8,30.06,WNW,299,0.0,0.0,82,0.00,,,0.01,Wunderground v.1.15,2013-12-22 22:50:00,
2013-12-22 16:55:00,37.8,33.1,30.06,WNW,302,0.0,0.0,83,0.00,,,0.01,Wunderground v.1.15,2013-12-22 22:55:00,
2013-12-22 17:00:00,37.6,32.3,30.06,WNW,287,0.0,0.0,81,0.00,,,0.01,Wunderground v.1.15,2013-12-22 23:00:00,
2013-12-22 17:05:00,37.4,32.4,30.06,NW,321,0.0,0.0,82,0.00,,,0.01,Wunderground v.1.15,2013-12-22 23:05:00,
2013-12-22 17:10:00,37.2,32.2,30.07,WNW,296,0.0,0.0,82,0.00,,,0.01,Wunderground v.1.15,2013-12-22 23:10:00,
2013-12-22 17:15:00,37.0,32.0,30.07,WNW,289,0.0,0.0,82,0.00,,,0.01,Wunderground v.1.15,2013-12-22 23:15:00,
2013-12-22 17:20:00,36.8,31.8,30.07,WNW,286,0.0,0.0,82,0.00,,,0.01,Wunderground v.1.15,2013-12-22 23:20:00,
2013-12-22 17:25:00,36.7,32.0,30.08,NW,304,0.0,0.0,83,0.00,,,0.01,Wunderground v.1.15,2013-12-22 23:25:00,
2013-12-22 17:30:00,36.5,31.5,30.09,WNW,301,0.0,0.0,82,0.00,,,0.01,Wunderground v.1.15,2013-12-22 23:30:00,
2013-12-22 17:35:00,36.4,31.7,30.09,NW,304,0.0,0.0,83,0.00,,,0.01,Wunderground v.1.15,2013-12-22 23:35:00,
2013-12-22 17:40:00,36.6,32.5,30.09,WNW,295,0.0,0.0,85,0.00,,,0.01,Wunderground v.1.15,2013-12-22 23:40:00,
2013-12-22 17:45:00,36.8,33.3,30.10,NW,306,0.0,0.0,87,0.00,,,0.01,Wunderground v.1.15,2013-12-22 23:45:00,
2013-12-22 17:50:00,36.7,32.6,30.10,NW,304,0.0,0.0,85,0.00,,,0.01,Wunderground v.1.15,2013-12-22 23:50:00,
2013-12-22 17:55:00,36.5,32.1,30.10,WNW,295,0.0,0.0,84,0.00,,,0.01,Wunderground v.1.15,2013-12-22 23:55:00,
2013-12-22 18:00:00,36.4,32.3,30.11,NW,321,0.0,0.0,85,0.00,,,0.01,Wunderground v.1.15,2013-12-23 00:00:00,
2013-12-22 18:05:00,36.3,31.9,30.11,WNW,302,0.0,0.0,84,0.00,,,0.01,Wunderground v.1.15,2013-12-23 00:05:00,
2013-12-22 18:15:00,36.1,32.0,30.12,NW,310,0.0,0.0,85,0.00,,,0.01,Wunderground v.1.15,2013-12-23 00:15:00,
2013-12-22 18:20:00,36.1,31.7,30.12,WNW,303,0.0,0.0,84,0.00,,,0.01,Wunderground v.1.15,2013-12-23 00:20:00,
2013-12-22 18:25:00,36.0,31.3,30.13,WNW,302,0.0,0.0,83,0.00,,,0.01,Wunderground v.1.15,2013-12-23 00:25:00,
2013-12-22 18:30:00,36.0,31.6,30.13,NW,321,0.0,0.0,84,0.00,,,0.01,Wunderground v.1.15,2013-12-23 00:30:00,
2013-12-22 18:35:00,35.9,31.5,30.13,West,275,0.0,0.0,84,0.00,,,0.01,Wunderground v.1.15,2013-12-23 00:35:00,
2013-12-22 18:40:00,35.8,31.1,30.13,NW,321,0.0,0.0,83,0.00,,,0.01,Wunderground v.1.15,2013-12-23 00:40:00,
2013-12-22 18:45:00,35.7,31.0,30.13,NW,321,0.0,0.0,83,0.00,,,0.01,Wunderground v.1.15,2013-12-23 00:45:00,
2013-12-22 18:50:00,35.5,30.5,30.13,WNW,287,0.0,0.0,82,0.00,,,0.01,Wunderground v.1.15,2013-12-23 00:50:00,
2013-12-22 18:55:00,35.3,30.7,30.13,NW,306,0.0,0.0,83,0.00,,,0.01,Wunderground v.1.15,2013-12-23 00:55:00,
2013-12-22 19:00:00,35.1,30.5,30.14,WNW,295,0.0,0.0,83,0.00,,,0.01,Wunderground v.1.15,2013-12-23 01:00:00,
2013-12-22 19:05:00,34.9,30.0,30.14,WNW,288,0.0,0.0,82,0.00,,,0.01,Wunderground v.1.15,2013-12-23 01:05:00,
2013-12-22 19:10:00,34.8,30.2,30.14,NW,312,0.0,0.0,83,0.00,,,0.01,Wunderground v.1.15,2013-12-23 01:10:00,
2013-12-22 19:15:00,34.8,30.2,30.15,WNW,302,0.0,0.0,83,0.00,,,0.01,Wunderground v.1.15,2013-12-23 01:15:00,
2013-12-22 19:20:00,34.7,30.4,30.15,WNW,289,0.0,0.0,84,0.00,,,0.01,Wunderground v.1.15,2013-12-23 01:20:00,
2013-12-22 19:25:00,34.6,30.0,30.15,WNW,292,0.0,0.0,83,0.00,,,0.01,Wunderground v.1.15,2013-12-23 01:25:00,
2013-12-22 19:30:00,34.5,29.9,30.15,NW,308,0.0,0.0,83,0.00,,,0.01,Wunderground v.1.15,2013-12-23 01:30:00,
2013-12-22 19:40:00,34.4,29.8,30.16,WNW,287,0.0,0.0,83,0.00,,,0.01,Wunderground v.1.15,2013-12-23 01:40:00,
2013-12-22 19:45:00,34.4,30.1,30.16,NW,321,0.0,0.0,84,0.00,,,0.01,Wunderground v.1.15,2013-12-23 01:45:00,
2013-12-22 19:50:00,34.4,30.1,30.16,NW,309,0.0,0.0,84,0.00,,,0.01,Wunderground v.1.15,2013-12-23 01:50:00,
2013-12-22 19:55:00,34.3,30.0,30.16,NW,308,0.0,0.0,84,0.00,,,0.01,Wunderground v.1.15,2013-12-23 01:55:00,
2013-12-22 20:00:00,34.2,29.6,30.16,NW,306,0.0,0.0,83,0.00,,,0.01,Wunderground v.1.15,2013-12-23 02:00:00,
2013-12-22 20:05:00,34.2,29.6,30.16,WNW,289,0.0,0.0,83,0.00,,,0.01,Wunderground v.1.15,2013-12-23 02:05:00,
2013-12-22 20:10:00,34.1,29.5,30.17,NW,315,0.0,0.0,83,0.00,,,0.01,Wunderground v.1.15,2013-12-23 02:10:00,
2013-12-22 20:15:00,34.1,29.8,30.17,NW,321,0.0,0.0,84,0.00,,,0.01,Wunderground v.1.15,2013-12-23 02:15:00,
2013-12-22 20:20:00,34.0,30.0,30.17,NW,310,0.0,0.0,85,0.00,,,0.01,Wunderground v.1.15,2013-12-23 02:20:00,
2013-12-22 20:25:00,34.0,29.7,30.17,NW,308,0.0,0.0,84,0.00,,,0.01,Wunderground v.1.15,2013-12-23 02:25:00,
2013-12-22 20:30:00,33.9,29.6,30.18,NW,304,0.0,0.0,84,0.00,,,0.01,Wunderground v.1.15,2013-12-23 02:30:00,
2013-12-22 20:40:00,33.7,29.4,30.18,WNW,296,0.0,0.0,84,0.00,,,0.01,Wunderground v.1.15,2013-12-23 02:40:00,
2013-12-22 20:45:00,33.6,29.0,30.19,WNW,286,0.0,0.0,83,0.00,,,0.01,Wunderground v.1.15,2013-12-23 02:45:00,
2013-12-22 20:50:00,33.6,29.3,30.19,West,272,0.0,0.0,84,0.00,,,0.01,Wunderground v.1.15,2013-12-23 02:50:00,
2013-12-22 20:55:00,33.6,29.0,30.19,WNW,287,0.0,0.0,83,0.00,,,0.01,Wunderground v.1.15,2013-12-23 02:55:00,
2013-12-22 21:00:00,33.5,29.2,30.19,NW,311,0.0,0.0,84,0.00,,,0.01,Wunderground v.1.15,2013-12-23 03:00:00,
2013-12-22 21:05:00,33.5,29.2,30.19,NW,314,0.0,0.0,84,0.00,,,0.01,Wunderground v.1.15,2013-12-23 03:05:00,
2013-12-22 21:15:00,33.4,29.1,30.19,NW,321,0.0,0.0,84,0.00,,,0.01,Wunderground v.1.15,2013-12-23 03:15:00,
2013-12-22 21:20:00,33.3,29.0,30.19,NW,321,0.0,0.0,84,0.00,,,0.01,Wunderground v.1.15,2013-12-23 03:20:00,
2013-12-22 21:25:00,33.3,29.3,30.19,WNW,295,0.0,0.0,85,0.00,,,0.01,Wunderground v.1.15,2013-12-23 03:25:00,
2013-12-22 21:30:00,33.3,29.0,30.20,NW,312,0.0,0.0,84,0.00,,,0.01,Wunderground v.1.15,2013-12-23 03:30:00,
2013-12-22 21:35:00,33.2,28.9,30.20,WNW,283,0.0,0.0,84,0.00,,,0.01,Wunderground v.1.15,2013-12-23 03:35:00,
2013-12-22 21:40:00,33.2,28.9,30.20,WNW,297,0.0,0.0,84,0.00,,,0.01,Wunderground v.1.15,2013-12-23 03:40:00,
2013-12-22 21:45:00,33.1,28.8,30.21,WNW,300,0.0,0.0,84,0.00,,,0.01,Wunderground v.1.15,2013-12-23 03:45:00,
2013-12-22 21:50:00,33.1,29.1,30.21,NW,309,0.0,0.0,85,0.00,,,0.01,Wunderground v.1.15,2013-12-23 03:50:00,
2013-12-22 21:55:00,33.0,29.0,30.21,WNW,285,0.0,0.0,85,0.00,,,0.01,Wunderground v.1.15,2013-12-23 03:55:00,
2013-12-22 22:00:00,32.9,28.9,30.21,WNW,302,0.0,0.0,85,0.00,,,0.01,Wunderground v.1.15,2013-12-23 04:00:00,
2013-12-22 22:05:00,32.8,28.8,30.22,NW,312,0.0,0.0,85,0.00,,,0.01,Wunderground v.1.15,2013-12-23 04:05:00,
2013-12-22 22:10:00,32.8,29.1,30.22,WNW,299,0.0,0.0,86,0.00,,,0.01,Wunderground v.1.15,2013-12-23 04:10:00,
2013-12-22 22:15:00,32.7,28.4,30.22,WNW,293,0.0,0.0,84,0.00,,,0.01,Wunderground v.1.15,2013-12-23 04:15:00,
2013-12-22 22:20:00,32.6,28.6,30.23,WNW,287,0.0,0.0,85,0.00,,,0.01,Wunderground v.1.15,2013-12-23 04:20:00,
2013-12-22 22:25:00,32.6,28.6,30.23,WNW,291,0.0,0.0,85,0.00,,,0.01,Wunderground v.1.15,2013-12-23 04:25:00,
2013-12-22 22:30:00,32.6,28.6,30.24,WNW,286,0.0,0.0,85,0.00,,,0.01,Wunderground v.1.15,2013-12-23 04:30:00,
2013-12-22 22:35:00,32.4,28.1,30.24,West,281,0.0,0.0,84,0.00,,,0.01,Wunderground v.1.15,2013-12-23 04:35:00,
2013-12-22 22:40:00,32.3,28.0,30.25,West,275,0.0,0.0,84,0.00,,,0.01,Wunderground v.1.15,2013-12-23 04:40:00,
2013-12-22 22:45:00,32.2,27.6,30.25,WNW,285,0.0,0.0,83,0.00,,,0.01,Wunderground v.1.15,2013-12-23 04:45:00,
2013-12-22 22:50:00,32.2,27.9,30.25,NW,312,0.0,0.0,84,0.00,,,0.01,Wunderground v.1.15,2013-12-23 04:50:00,
2013-12-22 23:00:00,32.0,27.4,30.25,NW,304,0.0,0.0,83,0.00,,,0.01,Wunderground v.1.15,2013-12-23 05:00:00,
2013-12-22 23:05:00,31.9,27.0,30.26,West,275,0.0,0.0,82,0.00,,,0.01,Wunderground v.1.15,2013-12-23 05:05:00,
2013-12-22 23:10:00,31.9,27.3,30.26,WNW,303,0.0,0.0,83,0.00,,,0.01,Wunderground v.1.15,2013-12-23 05:10:00,
2013-12-22 23:15:00,31.8,27.2,30.26,WNW,303,0.0,0.0,83,0.00,,,0.01,Wunderground v.1.15,2013-12-23 05:15:00,
2013-12-22 23:20:00,31.8,27.2,30.26,West,281,0.0,0.0,83,0.00,,,0.01,Wunderground v.1.15,2013-12-23 05:20:00,
2013-12-22 23:25:00,31.8,27.5,30.26,WNW,289,0.0,0.0,84,0.00,,,0.01,Wunderground v.1.15,2013-12-23 05:25:00,
2013-12-22 23:30:00,31.7,27.4,30.26,West,273,0.0,0.0,84,0.00,,,0.01,Wunderground v.1.15,2013-12-23 05:30:00,
2013-12-22 23:35:00,31.7,27.4,30.26,WNW,292,0.0,0.0,84,0.00,,,0.01,Wunderground v.1.15,2013-12-23 05:35:00,
2013-12-22 23:40:00,31.7,27.4,30.26,West,262,0.0,0.0,84,0.00,,,0.01,Wunderground v.1.15,2013-12-23 05:40:00,
2013-12-22 23:45:00,31.6,27.0,30.27,WNW,296,0.0,0.0,83,0.00,,,0.01,Wunderground v.1.15,2013-12-23 05:45:00,
2013-12-22 23:50:00,31.5,27.2,30.26,NW,305,0.0,0.0,84,0.00,,,0.01,Wunderground v.1.15,2013-12-23 05:50:00,
2013-12-22 23:55:00,31.5,27.2,30.26,West,262,0.0,0.0,84,0.00,,,0.01,Wunderground v.1.15,2013-12-23 05:55:00,